This is the latest recevied weather packets stored in our database for station/object W8DRH-13. If no packets are shown the sender has not sent any weather packets the latest 10 day(s).
| Time | Temp. | Humidity | Pressure | Rain* | Wind** | Luminosity | Snow |
|---|---|---|---|---|---|---|---|
| 1777547203 | 5° C | 96% | 1010.7 hPa | 0 mm | - | 8 W/m² | - |
| 1777546900 | 5° C | 95% | 1010.7 hPa | 0 mm | - | 10 W/m² | - |
| 1777546596 | 5° C | 96% | 1010.6 hPa | 0 mm | - | 8 W/m² | - |
| 1777546287 | 5° C | 95% | 1010.5 hPa | 0 mm | - | 4 W/m² | - |
| 1777545985 | 5° C | 95% | 1010.6 hPa | 0 mm | - | 1 W/m² | - |
| 1777545681 | 5° C | 95% | 1010.6 hPa | 0 mm | - | 0 W/m² | - |
| 1777545378 | 5.56° C | 95% | 1010.4 hPa | 1.78 mm | - | 0 W/m² | - |
| 1777545075 | 5.56° C | 95% | 1010.4 hPa | 1.78 mm | - | 0 W/m² | - |
| 1777544772 | 5.56° C | 95% | 1010.3 hPa | 0 mm | - | 0 W/m² | - |
| 1777544468 | 5.56° C | 94% | 1010.4 hPa | 0 mm | - | 0 W/m² | - |
| 1777544164 | 5.56° C | 94% | 1010.5 hPa | 0 mm | - | 0 W/m² | - |
| 1777543862 | 5.56° C | 94% | 1010.2 hPa | 0 mm | - | 0 W/m² | - |
| 1777543558 | 5.56° C | 93% | 1010.3 hPa | 0 mm | - | 0 W/m² | - |
| 1777543254 | 5.56° C | 93% | 1010.1 hPa | 1.27 mm | - | 0 W/m² | - |
| 1777542950 | 5.56° C | 93% | 1010.2 hPa | 1.27 mm | - | 0 W/m² | - |
| 1777542646 | 5.56° C | 92% | 1010.4 hPa | 0 mm | - | 0 W/m² | - |
| 1777542343 | 5.56° C | 92% | 1010.4 hPa | 0 mm | - | 0 W/m² | - |
| 1777542040 | 6.11° C | 92% | 1010.2 hPa | 0 mm | - | 0 W/m² | - |
| 1777541738 | 6.11° C | 92% | 1010.3 hPa | 0 mm | - | 0 W/m² | - |
| 1777541434 | 6.11° C | 92% | 1010.1 hPa | 0 mm | - | 0 W/m² | - |
| 1777541129 | 6.11° C | 91% | 1010.2 hPa | 0 mm | - | 0 W/m² | - |
| 1777540827 | 6.11° C | 91% | 1010.2 hPa | 0 mm | - | 0 W/m² | - |
| 1777540525 | 6.11° C | 91% | 1010 hPa | 0 mm | - | 0 W/m² | - |
| 1777540221 | 6.11° C | 91% | 1009.8 hPa | 0 mm | - | 0 W/m² | - |
| 1777539916 | 6.11° C | 91% | 1010.1 hPa | 0 mm | - | 0 W/m² | - |
* Rain latest hour (hover to see other rain measurements)
** Current wind speed in m/s (hover to see current wind gust speed)